N2DJ Weather Reports


Display with metric or nautical units.
time (UTC)temp
F
wind
direction
speed
MPH
gust
MPH
rain 1hr
in
rain 24hr
in
rain mn
in
humidity
%
barometer
mb
20260508191557 55 186 3.0 8.0 0.00 0.38 0.12 57 1012.1
20260508190053 54 85 1.0 6.0 0.00 0.38 0.12 55 1012.2
20260508184551 55 209 3.0 7.0 0.00 0.38 0.12 56 1012.2
20260508183052 55 211 3.0 8.0 0.00 0.38 0.12 56 1012.3
20260508181548 54 290 1.0 5.0 0.00 0.38 0.12 56 1012.3
20260508180046 54 300 1.0 9.0 0.00 0.38 0.12 55 1012.4
20260508174544 53 114 2.0 10.0 0.00 0.38 0.12 55 1012.5
20260508173044 53 165 1.0 8.0 0.00 0.38 0.12 56 1012.6
20260508171550 53 288 3.0 11.0 0.00 0.38 0.12 59 1012.8
20260508170039 52 242 2.0 7.0 0.00 0.38 0.12 59 1012.9
20260508164538 51 309 2.0 7.0 0.00 0.38 0.12 62 1013.0
20260508163036 51 313 1.0 9.0 0.00 0.38 0.12 62 1013.2
20260508161534 51 284 1.0 8.0 0.00 0.38 0.12 66 1013.3
20260508160033 50 266 3.0 10.0 0.00 0.38 0.12 67 1013.4
20260508154531 50 286 2.0 7.0 0.00 0.38 0.12 74 1013.3
20260508153025 48 296 2.0 7.0 0.00 0.38 0.12 75 1013.5
20260508151524 48 212 2.0 9.0 0.00 0.38 0.12 82 1013.7
20260508150017 46 242 2.0 9.0 0.00 0.38 0.12 82 1013.6
20260508144515 46 201 1.0 5.0 0.00 0.38 0.12 85 1013.5
20260508143014 46 232 2.0 5.0 0.00 0.38 0.12 87 1013.5
20260508141511 44 234 0.0 5.0 0.00 0.38 0.12 91 1013.4
20260508140007 43 196 0.0 4.0 0.00 0.38 0.12 95 1013.5
20260508134506 43 244 0.0 3.0 0.00 0.38 0.12 95 1013.6
20260508133004 42 242 0.0 2.0 0.00 0.38 0.12 96 1013.6
20260508131502 42 245 0.0 1.0 0.00 0.38 0.12 96 1013.8
20260508130112 41 244 0.0 2.0 0.00 0.38 0.12 97 1013.6
20260508124555 41 244 0.0 1.0 0.01 0.38 0.12 97 1013.5
20260508123103 40 244 0.0 0.0 0.02 0.38 0.12 97 1013.3
20260508121602 40 244 0.0 0.0 0.05 0.38 0.12 97 1013.5
20260508120051 40 244 0.0 0.0 0.08 0.38 0.12 97 1013.5
20260508114549 39 244 0.0 1.0 0.09 0.37 0.11 97 1013.5
20260508113049 39 244 0.0 3.0 0.09 0.36 0.10 97 1013.5
20260508111547 40 252 0.0 2.0 0.06 0.33 0.07 97 1013.4
20260508110047 40 252 1.0 5.0 0.04 0.30 0.04 97 1013.1
20260508104615 40 240 0.0 0.0 0.02 0.28 0.02 97 1012.7
20260508103047 41 240 0.0 1.0 0.01 0.27 0.01 97 1012.7
20260508101549 41 294 0.0 2.0 0.01 0.27 0.01 97 1012.4
20260508100044 41 297 0.0 2.0 0.00 0.26 0.00 97 1012.2
20260508094547 41 298 0.0 0.0 0.00 0.26 0.00 97 1012.3
20260508093043 41 297 0.0 1.0 0.00 0.26 0.00 97 1012.0
20260508091541 41 298 0.0 0.0 0.00 0.26 0.00 97 1012.4
20260508090052 41 298 0.0 0.0 0.00 0.26 0.00 97 1012.2
20260508084540 41 298 0.0 0.0 0.00 0.26 0.00 97 1012.5
20260508083056 41 298 0.0 0.0 0.00 0.26 0.00 97 1012.5
20260508081552 41 298 0.0 2.0 0.00 0.26 0.00 97 1012.5
20260508080036 40 298 0.0 3.0 0.00 0.26 0.00 97 1012.4
20260508074534 40 355 0.0 0.0 0.00 0.26 0.00 97 1012.4
20260508073032 39 355 0.0 0.0 0.00 0.26 0.00 97 1012.4
20260508071532 39 355 0.0 1.0 0.00 0.26 0.00 97 1012.5
20260508070050 38 355 0.0 0.0 0.00 0.26 0.00 97 1012.4
20260508064532 38 355 0.0 0.0 0.00 0.26 0.00 96 1012.6
20260508063027 38 355 0.0 0.0 0.00 0.26 0.00 96 1012.6
20260508061526 37 355 0.0 0.0 0.00 0.26 0.00 96 1012.7
20260508060024 37 355 0.0 0.0 0.00 0.26 0.00 96 1012.8
20260508054523 37 355 0.0 0.0 0.00 0.26 0.00 96 1012.8
20260508053023 37 355 0.0 0.0 0.00 0.26 0.00 96 1013.0
20260508051520 37 355 0.0 0.0 0.00 0.26 0.00 95 1012.9
20260508050022 38 355 0.0 0.0 0.00 0.26 0.00 95 1012.9
20260508044515 38 355 0.0 0.0 0.00 0.26 0.00 95 1013.3
20260508043014 39 355 0.0 1.0 0.00 0.26 0.00 95 1013.0
20260508041512 39 355 0.0 0.0 0.01 0.26 0.00 95 1013.0
20260508040018 39 355 0.0 0.0 0.01 0.26 0.26 95 1013.0
20260508034512 40 355 0.0 1.0 0.01 0.26 0.26 95 1013.1
20260508033009 40 355 0.0 0.0 0.01 0.26 0.26 95 1013.0
20260508031517 40 355 0.0 2.0 0.00 0.25 0.25 95 1012.8
20260508030007 40 355 0.0 0.0 0.01 0.25 0.25 94 1012.8
20260508024507 41 355 0.0 0.0 0.03 0.25 0.25 94 1012.8
20260508023007 42 355 0.0 0.0 0.04 0.25 0.25 94 1012.6
20260508021506 42 355 0.0 2.0 0.05 0.25 0.25 94 1012.8
20260508020007 42 275 0.0 3.0 0.04 0.23 0.23 94 1012.9
20260508014504 42 318 0.0 7.0 0.03 0.22 0.22 94 1012.8
20260508013005 42 252 1.0 5.0 0.02 0.21 0.21 94 1012.8
20260508011503 42 252 1.0 5.0 0.02 0.20 0.20 94 1012.7
20260508010003 43 306 0.0 3.0 0.07 0.19 0.19 93 1012.5
20260508004502 42 360 0.0 0.0 0.10 0.19 0.19 92 1012.0
20260508003002 42 360 0.0 1.0 0.14 0.19 0.19 91 1011.9
20260508001503 42 360 1.0 3.0 0.18 0.18 0.18 91 1011.9
20260508000100 43 284 1.0 8.0 0.12 0.12 0.12 89 1012.4
20260507234601 43 273 1.0 8.0 0.09 0.09 0.09 85 1012.1
20260507233100 46 298 3.0 10.0 0.05 0.05 0.05 80 1011.9
20260507231559 49 301 0.0 0.0 0.00 0.00 0.00 74 1011.4
20260507230115 49 301 0.0 3.0 0.00 0.00 0.00 69 1011.2
20260507224601 50 268 0.0 4.0 0.00 0.00 0.00 69 1011.3
20260507223058 50 250 3.0 7.0 0.00 0.00 0.00 66 1011.3
20260507221602 50 214 4.0 9.0 0.00 0.00 0.00 64 1011.3
20260507220058 51 271 1.0 7.0 0.00 0.00 0.00 64 1011.4
20260507214555 51 280 3.0 9.0 0.00 0.02 0.00 63 1011.3
20260507213100 52 228 2.0 6.0 0.00 0.02 0.00 62 1011.3
20260507211558 51 242 2.0 6.0 0.00 0.02 0.00 65 1011.3
20260507210052 51 266 3.0 5.0 0.00 0.02 0.00 63 1011.4
20260507204557 49 279 1.0 6.0 0.00 0.03 0.00 70 1011.4
20260507203054 49 302 1.0 6.0 0.00 0.03 0.00 70 1011.6
20260507201600 49 319 3.0 7.0 0.00 0.03 0.00 67 1011.7
20260507200052 50 302 2.0 9.0 0.00 0.03 0.00 68 1011.7
20260507194552 50 309 2.0 5.0 0.00 0.03 0.00 64 1011.9